Location: Madrid
(40.4000°N, 3.6830°W)
Time: 12:22:45
(UTC+01:00)

ISS - Pass Details

Date: 19 March 2019
Orbit: 408 x 411 km, 51.6° (Epoch: 24 March)

Event Time Altitude Azimuth Distance (km) Brightness Sun altitude
Rises 20:27:00 0° 187° (S) 2,318 0.0 -12.5°
Reaches altitude 10° 20:29:59 10° 157° (SSE) 1,463 -1.3 -13.1°
Enters shadow 20:30:05 10° 155° (SSE) 1,446 -1.4 -13.1°
